User: anonymous   Login
Location: Bouchavesnes-Bergen
(49.9859°N, 2.9203°E)
Time: 16:41:29
(UTC+00:00)
Language:

Cosmos 1633 Rocket - Orbit

View from above orbital plane
View from above orbital plane
View from above satellite
View from above satellite

Ground track
Ground track

The orbit data is extracted from the following two-line orbital elements,

1 15593U 85020B   21129.20717592  .00000089  00000-0  76688-5 0  9993
2 15593  82.5403  11.8378 0012367  29.5311 330.6600 14.84428383934150
Epoch (UTC): 09 May 2021 04:58:19
Eccentricity: 0.0012367
inclination: 82.5403°
perigee height: 607 km
apogee height: 624 km
right ascension of ascending node: 11.8378°
argument of perigee: 29.5311°
revolutions per day: 14.84428383
mean anomaly at epoch: 330.6600°
orbit number at epoch: 93415

The dashed part of the orbit path shows where the satellite is in the earth's shadow,  

DLR